This is the latest recevied weather packets stored in our database for station/object WA6OOO. If no packets are shown the sender has not sent any weather packets the latest 10 day(s).
| Time | Temp. | Humidity | Pressure | Rain* | Wind** | Luminosity | Snow |
|---|---|---|---|---|---|---|---|
| 1777591276 | 20° C | 62% | 1013.7 hPa | 0 mm | - | 450 W/m² | - |
| 1777590971 | 19.44° C | 62% | 1013.6 hPa | 0 mm | - | 465 W/m² | - |
| 1777590668 | 19.44° C | 63% | 1013.7 hPa | 0 mm | - | 481 W/m² | - |
| 1777590363 | 19.44° C | 64% | 1013.7 hPa | 0 mm | - | 492 W/m² | - |
| 1777590061 | 19.44° C | 64% | 1013.7 hPa | 0 mm | - | 508 W/m² | - |
| 1777589757 | 19.44° C | 63% | 1013.8 hPa | 0 mm | - | 526 W/m² | - |
| 1777589456 | 19.44° C | 65% | 1013.8 hPa | 0 mm | - | 541 W/m² | - |
| 1777589152 | 20° C | 65% | 1013.8 hPa | 0 mm | - | 556 W/m² | - |
| 1777588848 | 19.44° C | 66% | 1013.9 hPa | 0 mm | - | 568 W/m² | - |
| 1777588544 | 20° C | 62% | 1013.8 hPa | 0 mm | - | 584 W/m² | - |
| 1777588240 | 19.44° C | 64% | 1014 hPa | 0 mm | - | 597 W/m² | - |
| 1777587935 | 20° C | 65% | 1014 hPa | 0 mm | - | 611 W/m² | - |
| 1777587631 | 20° C | 64% | 1014.2 hPa | 0 mm | - | 625 W/m² | - |
| 1777587326 | 19.44° C | 67% | 1014.2 hPa | 0 mm | - | 640 W/m² | - |
| 1777587021 | 19.44° C | 66% | 1014.5 hPa | 0 mm | - | 650 W/m² | - |
| 1777586717 | 19.44° C | 66% | 1014.3 hPa | 0 mm | - | 661 W/m² | - |
| 1777586414 | 18.89° C | 67% | 1014.5 hPa | 0 mm | - | 671 W/m² | - |
| 1777586113 | 18.89° C | 68% | 1014.3 hPa | 0 mm | - | 680 W/m² | - |
| 1777585812 | 18.89° C | 67% | 1014.5 hPa | 0 mm | - | 692 W/m² | - |
| 1777585511 | 19.44° C | 66% | 1014.6 hPa | 0 mm | - | 698 W/m² | - |
| 1777585207 | 18.89° C | 66% | 1014.7 hPa | 0 mm | - | 708 W/m² | - |
| 1777584903 | 19.44° C | 67% | 1014.7 hPa | 0 mm | - | 714 W/m² | - |
| 1777584600 | 18.89° C | 68% | 1014.6 hPa | 0 mm | - | 722 W/m² | - |
| 1777584297 | 19.44° C | 65% | 1014.8 hPa | 0 mm | - | 729 W/m² | - |
| 1777583992 | 19.44° C | 66% | 1015 hPa | 0 mm | - | 734 W/m² | - |
* Rain latest hour (hover to see other rain measurements)
** Current wind speed in m/s (hover to see current wind gust speed)